Location: Butler
(32.5575°N, 84.2380°W)
Time: 20:36:49
(UTC+00:00)

N. Korean satellite - Pass Details

Date: 03 December 2021
Orbit: 447 x 490 km, 97.3° (Epoch: 27 January)

Event Time Altitude Azimuth Distance (km) Brightness Sun altitude
Rises 11:39:42 0° 348° (NNW) 2,453 9.8 -9.2°
Maximum altitude 11:44:18 14° 289° (WNW) 1,337 8.1 -8.3°
Drops below altitude 10° 11:46:09 10° 256° (WSW) 1,569 8.7 -7.9°
Sets 11:48:54 0° 230° (SW) 2,438 9.8 -7.4°
